STARLINK-11226, 60907

Orbit data source: Space-Track

STARLINK-11226, 60907 is a payload satellite owned by SpaceX/Seattle (US) in LEO that was launched on Sat, 31 Aug 2024 UTC via an FALCON 9 launch vehicle from the Air Force Eastern Test Range (AFETR). Payload-class satellites include a variety of spacecraft equipped with specific instruments for various scientific and technological missions. These include communications satellites like Starlink; space stations such as the ISS; scientific satellites like the Hubble; Earth observation satellites from companies like Planet Labs, Umbra, and HawkEye 360; GPS; miniature CubeSats for education and research; and military/defense satellites.

Loading next visibility...
Identifier
60907, 2024-154E
Orbit
LEO
Country
Flag of USUS
Related business
Manufacturer
SpaceX/Seattle
Mission
Operational Commercial Communications
Bus & Motor
STARLINK V2MD, Unknown motor
Mass
960 kg wet, ~910 kg dry
Launch date (UTC)
2024-08-31 (2 years ago)
Launch vehicle
FALCON 9
Launch site
Air Force Eastern Test Range (AFETR)
Object type
Payload
Rocket body
Debris
Shape & HBR
Box + 2 Pan, 18.1 m
Radar Cross Section
36.964 m², Large (>1 m²)

Expand to show TLE details & history
Last TLE update: 14 hours ago

TLE from 14 hours ago
0 STARLINK-11226
1 60907U 24154E   26129.88814514 -.00001045  00000-0 -37763-5 0  9990
2 60907  53.1599 189.7744 0000789  83.4334 276.6773 15.69698928 98126
Epoch: 2026-05-09T21:18Z
TLE epoch observation values (Epoch: 2026-05-09T21:18:55.740Z)
Latitude
-0.00006°
Longitude
2.34299°
Altitude
360.612 km
Speed
7.694 km/s
True Right ascension
12h 39m 05s
True Declination
0° 00' 00"
Sunlit
Object was in full shadow at epoch
Visualization orbit readout
Latitude
Unknown
Longitude
Unknown
Altitude
Unknown
Speed
Unknown
Apparent Right ascension
Unknown
Apparent Declination
Unknown
Sunlit
N/A
Visualization observer readout
Local Sidereal Time
19:50:56
Azimuth
Unknown
Elevation
Unknown
Doppler factor
Unknown
Orbital elements
Apogee altitude
360.551 km
Perigee altitude
359.487 km
Semi-major axis
6,738.156 km
Eccentricity
0.00008
Inclination
53.1599°
RAAN
189.7744°
Arg. of periapsis
83.4334°
True anomaly
276.66832°
Mean anomaly
276.6773°
Eccentric anomaly
276.67281°
Mean motion
3.92402 °/min
Orbital period
91.74 mins
BSTAR
-0.0000037763
Loading maneuver chart data...
Computing Atmospheric mass density...
Loading historical data...
Loading historical data...
Loading historical data...
Loading historical data...
Loading historical data...
Loading historical data...
Loading historical data...

Documentation

Showing up to 5 results
|